Погода в Эрзине

Россия / Республика Тыва     50°15′38″N   95°09′33″E
темп.,
°C
ветер,
м/с
пор.,
м/с
влажн.,
%
обл.,
%
осадки,
мм/ч
давл.,
гПа
погр.,
м
11 мая, вт
вт1101:00+2всв32460 0.0 101928
04:00+1всв33516 0.0 101928
07:00+3в3439100 0.0 1018203
10:00+9ююв5624100 0.0 10141692
13:00+12ююв561898 0.0 10112226
16:00+13юз451896 0.0 10092127
19:00+12з432586 0.0 1009859
22:00+7сз2235100 0.0 101215
12 мая, ср
ср1201:00+5сз224022 0.0 101215
04:00+3зсз11485 0.0 101210
07:00+6з004047 0.0 1012170
10:00+11зюз212850 0.0 1009806
13:00+14з432388 0.0 10071782
16:00+16сз5421100 0.0 10042279
19:00+14ссв77276 0.0 10051065
22:00+10ссв3538100 0.0 100788
13 мая, чт
чт1301:00+8св344197 0.0 100671
04:00+7св3443100 0.0 100693
07:00+8ссв4742100 0.0 1006368
10:00+11ссв5733100 0.0 10051069
13:00+15ссв8920100 0.0 10042691
16:00+14св1522100 0.0 10052521
19:00+13с8822100 0.0 10061304
22:00+8с3329100 0.0 101039
14 мая, пт
пт1401:00+6св33337 0.0 101121
04:00+4в223732 0.0 101314
07:00+7вюв223294 0.0 1013194
10:00+12юз232643 0.0 10121215
13:00+15зюз46206 0.0 10102951
16:00+16зсз7818100 0.0 10082916
19:00+14зсз5820100 0.0 10081629
22:00+8с2460100 0.1 1014285
15 мая, сб
сб1501:00+5с477563 0.4 1017240
04:00+2ссв38500 0.1 1021309
07:00+3ссв3535100 0.1 1023517
10:00+7зюз342815 0.0 10201227
13:00+11з4830100 0.0 10161858
16:00+12зсз51227100 0.0 10142030
19:00+12зсз593261 0.0 10141443
22:00+8ссз23575 0.0 101627